Regional Weather Roundup
Issued by NWS Cleveland, OH

Home | Current Version | Previous Version | Graphics & Text | Print | Product List | Glossary On
Versions: 1 2 3 4 5 6 7 8 9 10 11 12 13 14 15 16 17 18 19 20 21 22 23 24 25 26 27 28 29 30 31 32 33 34 35 36 37 38 39 40 41 42 43 44 45 46 47 48 49 50
000
ASUS41 KCLE 230200
RWRCLE
OHIO REGIONAL WEATHER ROUNDUP
NATIONAL WEATHER SERVICE WILMINGTON, OH
1000 PM EDT WED MAR 22 2017

NOTE: "FAIR" INDICATES FEW OR NO CLOUDS BELOW 12,000 FEET WITH NO
SIGNIFICANT WEATHER AND/OR OBSTRUCTIONS TO VISIBILITY.

OHZ001>008-015>018-024>027-034-035-043-044-230300-
   NORTHWEST OHIO

CITY           SKY/WX    TMP DP  RH WIND       PRES   REMARKS
DEFIANCE       FAIR      28  14  55 E5        30.54R WCI  23
FINDLAY        FAIR      28  14  55 E7        30.52R WCI  21
TOLEDO EXPRESS FAIR      27  14  58 SE5       30.53S WCI  22
TOLEDO EXEC    FAIR      26  17  68 E3        30.55S
LIMA           FAIR      27  18  69 E9        30.51R WCI  18
$$

OHZ009>014-019>023-028>033-038-089-230300-
   NORTHEAST OHIO

CITY           SKY/WX    TMP DP  RH WIND       PRES   REMARKS
CLE-HOPKINS    FAIR      28  12  51 N3        30.58R
CLE-LAKEFRONT  FAIR      27  13  55 CALM      30.56R
CUY CO. ARPT   PTCLDY    25  14  63 CALM      30.55S
LORAIN-ELYRIA  FAIR      24  13  62 CALM      30.55S
ASHTABULA      FAIR      23  12  62 CALM      30.55R
AKRON-CANTON   FAIR      23  10  57 N8        30.51S WCI  14
WOOSTER        NOT AVBL
MANSFIELD      FAIR      23  14  68 N6        30.50S WCI  16
YOUNGSTOWN     FAIR      22   8  55 N6        30.52R WCI  14
$$

OHZ042-051>053-060>062-070>072-077>081-230300-
  SOUTHWEST OHIO

CITY           SKY/WX    TMP DP  RH WIND       PRES   REMARKS
CINC-COVINGTON FAIR      36  20  52 NE13      30.46R
CINC-LUNKEN    FAIR      33  22  63 NE7       30.50R WCI  27
HAMILTON       FAIR      34  20  56 NE9       30.50R WCI  27
DAYTON         NOT AVBL
WRIGHT-PAT AFB FAIR      30  18  61 NE8       30.50R WCI  22
DAYTON GENERAL FAIR      32  19  58 NE12      30.47R WCI  23
WILMINGTON     FAIR      29  22  75 NE10      30.47R WCI  20
$$

OHZ036-037-039>041-045>050-054>059-063>069-073>076-082>088-230300-
  CENTRAL AND SOUTHEAST OHIO

CITY           SKY/WX    TMP DP  RH WIND       PRES   REMARKS
COLUMBUS       FAIR      32  16  51 NE8       30.49R WCI  25
OSU AIRPORT    FAIR      28  18  66 N9        30.50R WCI  19
BOLTON FIELD   NOT AVBL
RICKENBACK AFB NOT AVBL
NEWARK         FAIR      31  13  47 NE6       30.49R WCI  25
MARION         FAIR      25  16  68 NE10      30.52R WCI  15
LANCASTER      FAIR      32  20  61 NE8       30.49R WCI  25
ZANESVILLE     FAIR      30  12  47 NE5       30.49R WCI  25
NEW PHILLY     FAIR      29  11  47 N6        30.52S WCI  23
$$




USA.gov is the U.S. government's official web portal to all federal, state and local government web resources and services.